Location: Unspecified
(0.0000°N, 0.0000°E)
Time: 09:19:07
(UTC+00:00)

Vela 3B - Visible Passes

Search period start: 09 November 2025 00:00
Search period end: 19 November 2025 00:00
Orbit: 55213 x 168354 km, 41.1° (Epoch: 24 June)

Date Brightness Start Highest point End Pass type
(mag) Time Alt. Az. Time Alt. Az. Time Alt. Az.
09 Nov ? 08:37:41 10° SE 14:06:57 49° S 19:43:05 10° SW visible
10 Nov ? 11:45:11 10° SE 17:35:44 52° S 23:16:33 10° WSW visible
11 Nov ? 16:55:49 10° E 22:17:24 38° NE 14:14:16 10° W daylight
13 Nov ? 06:16:50 10° ESE 11:49:26 58° S 17:33:21 10° SW visible
14 Nov ? 09:14:10 10° SE 14:46:17 48° S 20:21:28 10° SW visible
15 Nov ? 12:32:56 10° SE 18:39:06 60° S 00:31:15 10° WSW visible
17 Nov ? 02:59:36 10° ENE 09:15:51 84° S 15:18:25 10° WSW visible
18 Nov ? 06:53:56 10° ESE 12:23:21 53° S 18:02:48 10° SW visible
